Weather History for EGNV - November, 2011

Change the Weather History Date:

Thursday, November 10, 2011

  Actual Average Record
Temperature  
Mean Temperature 52 °F -  
Max Temperature 55 °F 46 °F 59 °F (2005)
Min Temperature 48 °F 36 °F 30 °F (1996)
Degree Days  
Heating Degree Days 14    
Growing Degree Days 2 (Base 50)    
Moisture  
Dew Point 51 °F    
Average Humidity 96    
Maximum Humidity 100    
Minimum Humidity 94    
Precipitation  
Precipitation 0.00 in - - ()
Sea Level Pressure  
Sea Level Pressure 30.08 in    
Wind  
Wind Speed 6 mph ()    
Max Wind Speed 12 mph    
Max Gust Speed -    
Visibility 3.2 miles    
Events Fog    
Averages and records for this station are not official NWS values.
T = Trace of Precipitation, MM = Missing Value Source: Averaged Metar Reports

Daily Weather History Graph

Daily Weather History Graph

Search for Another Location

Airport or City:

Trip Planner

Search our weather history database for the weather conditions in past years. The results will help you decide how hot, cold, wet, or windy it might be!

Date:

Astronomy

Nov. 10, 2011 Rise Set
Actual Time 7:24 AM GMT 4:13 PM GMT
Civil Twilight 6:45 AM GMT 4:52 PM GMT
Nautical Twilight 6:02 AM GMT 5:36 PM GMT
Astronomical Twilight 5:20 AM GMT 6:17 PM GMT
Moon 3:43 PM GMT (11/10) 7:09 AM GMT (11/10)
Length of Visible Light 10h 07m
Length of Day
8h 48m
Full, 100% of the Moon is Illuminated
Nov 10
Full
Nov 10
Full
Nov 18
Last Quarter
Nov 25
New
Dec 2
First Quarter

Hourly Weather History & Observations

Time (GMT) Temp. Dew Point Humidity Pressure Visibility Wind Dir Wind Speed Gust Speed Precip Events Conditions
5:50 AM 51.8 °F 50.0 °F 94% 30.01 in 5.0 mi South 9.2 mph - N/A   Mostly Cloudy
6:20 AM 51.8 °F 50.0 °F 94% 30.01 in 5.0 mi SSE 10.4 mph - N/A   Mostly Cloudy
6:50 AM 51.8 °F 50.0 °F 94% 30.04 in 2.5 mi SSE 9.2 mph - N/A   Mostly Cloudy
7:20 AM 51.8 °F 50.0 °F 94% 30.04 in 2.5 mi SSE 9.2 mph - N/A   Mostly Cloudy
7:50 AM 51.8 °F 50.0 °F 94% 30.04 in 2.5 mi SSE 9.2 mph - N/A   Mostly Cloudy
8:20 AM 51.8 °F 50.0 °F 94% 30.06 in 3.7 mi SSE 11.5 mph - N/A   Mostly Cloudy
8:50 AM 51.8 °F 50.0 °F 94% 30.06 in 3.7 mi SSE 8.1 mph - N/A   Mostly Cloudy
9:20 AM 51.8 °F 51.8 °F 100% 30.06 in 3.1 mi South 6.9 mph - N/A   Mostly Cloudy
9:50 AM 53.6 °F 51.8 °F 94% 30.06 in 2.5 mi South 9.2 mph - N/A   Mostly Cloudy
10:20 AM 53.6 °F 51.8 °F 94% 30.09 in 2.5 mi South 10.4 mph - N/A   Mostly Cloudy
11:20 AM 53.6 °F 51.8 °F 94% 30.09 in 2.5 mi South 6.9 mph - N/A   Mostly Cloudy
11:50 AM 53.6 °F 51.8 °F 94% 30.09 in 3.7 mi South 8.1 mph - N/A   Scattered Clouds
12:20 PM 53.6 °F 53.6 °F 100% 30.09 in 3.1 mi South 5.8 mph - N/A   Scattered Clouds
12:50 PM 53.6 °F 53.6 °F 100% 30.09 in 3.1 mi South 5.8 mph - N/A   Mostly Cloudy
1:20 PM 55.4 °F 53.6 °F 94% 30.09 in 2.5 mi South 5.8 mph - N/A   Mostly Cloudy
1:50 PM 55.4 °F 53.6 °F 94% 30.09 in 3.1 mi SW 4.6 mph - N/A   Mostly Cloudy
2:20 PM 55.4 °F 53.6 °F 94% 30.06 in 3.1 mi South 4.6 mph - N/A   Mostly Cloudy
2:50 PM 55.4 °F 53.6 °F 94% 30.09 in 3.1 mi SSW 3.5 mph - N/A   Scattered Clouds
3:20 PM 55.4 °F 53.6 °F 94% 30.09 in 2.8 mi Calm Calm - N/A   Scattered Clouds
3:50 PM 55.4 °F 53.6 °F 94% 30.09 in 2.5 mi WSW 1.2 mph - N/A   Scattered Clouds
4:20 PM 53.6 °F 53.6 °F 100% 30.09 in 1.9 mi WNW 1.2 mph - N/A   Scattered Clouds
4:50 PM 53.6 °F 51.8 °F 94% 30.09 in 2.5 mi NE 3.5 mph - N/A Fog Partly Cloudy
5:20 PM 51.8 °F 51.8 °F 100% 30.09 in 2.5 mi NW 1.2 mph - N/A Fog Patches of Fog
5:50 PM 51.8 °F 51.8 °F 100% 30.09 in 4.3 mi East 2.3 mph - N/A   Mostly Cloudy
6:20 PM 51.8 °F 50.0 °F 94% 30.09 in 3.7 mi SE 2.3 mph - N/A   Scattered Clouds
7:20 PM 50.0 °F 50.0 °F 100% 30.12 in 3.7 mi SE 5.8 mph - N/A   Mostly Cloudy
7:50 PM 50.0 °F 50.0 °F 100% 30.12 in 3.1 mi SSE 5.8 mph - N/A   Mostly Cloudy
8:20 PM 50.0 °F 50.0 °F 100% 30.09 in 4.3 mi SSE 5.8 mph - N/A   Scattered Clouds
8:50 PM 50.0 °F 50.0 °F 100% 30.12 in 4.3 mi South 5.8 mph - N/A   Scattered Clouds
9:20 PM 48.2 °F 48.2 °F 100% 30.12 in 4.3 mi ESE 3.5 mph - N/A   Scattered Clouds
9:50 PM 48.2 °F 48.2 °F 100% 30.12 in 3.1 mi East 3.5 mph - N/A   Mostly Cloudy
10:20 PM 48.2 °F 48.2 °F 100% 30.12 in 2.8 mi North 5.8 mph - N/A   Mostly Cloudy